Location: Helstorf
(52.5868°N, 9.5862°E)
Time: 11:13:24
(UTC+00:00)

Cosmos 2333 Rocket - Pass Details

Date: 15 May 2026
Orbit: 841 x 862 km, 70.8° (Epoch: 5 June)

Event Time Altitude Azimuth Distance (km) Brightness Sun altitude
Rises 19:50:10 0° 328° (NNW) 3,422 7.2 -5.5°
Reaches altitude 10° 19:52:37 10° 330° (NNW) 2,486 6.1 -5.7°
Maximum altitude 19:58:21 76° 57° (ENE) 884 2.3 -6.4°
Drops below altitude 10° 20:04:04 10° 143° (SE) 2,485 4.0 -7.0°
Enters shadow 20:04:29 - 143° (SE) 2,644 4.1 -7.0°
